TimeEDT,TemperatureF,Dew PointF,Humidity,Sea Level PressureIn,VisibilityMPH,Wind Direction,Wind SpeedMPH,Gust SpeedMPH,PrecipitationIn,Events,Conditions,WindDirDegrees,DateUTC
12:53 AM,39.9,34.0,79,30.22,10.0,Calm,Calm,-,N/A,,Clear,0,2012-10-12 04:53:00
1:53 AM,37.9,34.0,86,30.22,10.0,Calm,Calm,-,N/A,,Clear,0,2012-10-12 05:53:00
2:53 AM,37.9,34.0,86,30.21,10.0,Calm,Calm,-,N/A,,Clear,0,2012-10-12 06:53:00
4:53 AM,37.9,34.0,86,30.22,10.0,Calm,Calm,-,N/A,,Clear,0,2012-10-12 08:53:00
5:53 AM,36.0,34.0,93,30.22,10.0,Calm,Calm,-,N/A,,Clear,0,2012-10-12 09:53:00
6:53 AM,37.0,34.0,89,30.24,10.0,Calm,Calm,-,N/A,,Scattered Clouds,0,2012-10-12 10:53:00
7:53 AM,37.0,35.1,93,30.27,10.0,SSW,3.5,-,N/A,,Partly Cloudy,200,2012-10-12 11:53:00
8:53 AM,43.0,37.0,80,30.30,10.0,Calm,Calm,-,N/A,,Overcast,0,2012-10-12 12:53:00
9:53 AM,45.0,37.0,74,30.32,10.0,Calm,Calm,-,N/A,,Overcast,0,2012-10-12 13:53:00
10:03 AM,46.4,37.4,71,30.31,10.0,Calm,Calm,-,N/A,,Overcast,0,2012-10-12 14:03:00
10:53 AM,46.9,37.0,68,30.35,10.0,NNW,3.5,-,N/A,,Overcast,340,2012-10-12 14:53:00
11:03 AM,46.4,37.4,71,30.34,10.0,NW,4.6,-,N/A,,Overcast,320,2012-10-12 15:03:00
11:53 AM,48.9,39.0,69,30.37,10.0,NNW,4.6,-,N/A,,Overcast,340,2012-10-12 15:53:00
12:27 PM,51.8,37.4,58,30.34,10.0,Variable,4.6,-,N/A,,Overcast,0,2012-10-12 16:27:00
12:53 PM,48.9,37.0,64,30.36,10.0,Variable,6.9,18.4,N/A,,Overcast,0,2012-10-12 16:53:00
1:53 PM,53.1,37.0,55,30.36,10.0,North,9.2,18.4,N/A,,Mostly Cloudy,350,2012-10-12 17:53:00
2:53 PM,59.0,36.0,42,30.35,10.0,North,10.4,18.4,N/A,,Mostly Cloudy,10,2012-10-12 18:53:00
3:53 PM,66.9,32.0,27,30.35,10.0,Variable,3.5,-,N/A,,Clear,0,2012-10-12 19:53:00
4:53 PM,64.0,30.9,29,30.35,10.0,NNW,5.8,-,N/A,,Scattered Clouds,340,2012-10-12 20:53:00
5:53 PM,55.9,30.9,39,30.36,10.0,North,3.5,-,N/A,,Clear,10,2012-10-12 21:53:00
6:53 PM,50.0,28.9,44,30.38,10.0,NNE,3.5,-,N/A,,Clear,30,2012-10-12 22:53:00
7:53 PM,50.0,30.9,48,30.40,10.0,Calm,Calm,-,N/A,,Clear,0,2012-10-12 23:53:00
8:53 PM,45.0,32.0,60,30.42,10.0,Calm,Calm,-,N/A,,Clear,0,2012-10-13 00:53:00
10:53 PM,39.9,33.1,77,30.43,10.0,Calm,Calm,-,N/A,,Clear,0,2012-10-13 02:53:00
11:53 PM,39.9,32.0,73,30.43,10.0,Calm,Calm,-,N/A,,Clear,0,2012-10-13 03:53:00